Weather History for Oak Ridge, TN

Change the Weather History Date:

Thursday, May 2, 2013

  Actual Average (KTYS) Record (KTYS)
Temperature  
Mean Temperature 66 °F 63 °F  
Max Temperature 79 °F 75 °F 90 °F (2010)
Min Temperature 54 °F 52 °F 34 °F (1963)
Degree Days  
Heating Degree Days 0 4  
Month to date heating degree days 8  
Since 1 July heating degree days 3583  
Cooling Degree Days 1 2  
Month to date cooling degree days 4  
Year to date cooling degree days 41  
Growing Degree Days 16 (Base 50)    
Moisture  
Dew Point 54 °F    
Average Humidity 66    
Maximum Humidity 93    
Minimum Humidity 45    
Precipitation  
Precipitation 0.00 in 0.15 in 1.42 in (1984)
Month to date precipitation 0.30  
Year to date precipitation 17.23  
Snow  
Snow 0.00 in 0.00 in - ()
Month to date snowfall 0.0  
Since 1 July snowfall 6.5  
Snow Depth -    
Sea Level Pressure  
Sea Level Pressure 30.15 in    
Wind  
Wind Speed 1 mph (ENE)    
Max Wind Speed 7 mph    
Max Gust Speed -    
Visibility 10 miles    
Events      
T = Trace of Precipitation, MM = Missing Value Source: NWS Daily Summary

Daily Weather History Graph

Daily Weather History Graph

Search for Another Location

Airport:

Trip Planner

Search our weather history database for the weather conditions in past years. The results will help you decide how hot, cold, wet, or windy it might be!

Date:

Astronomy

May. 02, 2013 Rise Set
Actual Time 6:43 AM EDT 8:25 PM EDT
Civil Twilight 6:15 AM EDT 8:52 PM EDT
Nautical Twilight 5:42 AM EDT 9:26 PM EDT
Astronomical Twilight 5:07 AM EDT 10:01 PM EDT
Moon 2:15 AM EDT (5/2) 1:26 PM EDT (5/2)
Length of Visible Light 14h 37m
Length of Day
13h 42m
Waning Gibbous, 48% of the Moon is Illuminated
May 2
Waning Gibbous
May 9
New
May 18
First Quarter
May 25
Full
May 31
Last Quarter

Hourly Weather History & Observations

Time (EDT) Temp. Dew Point Humidity Pressure Visibility Wind Dir Wind Speed Gust Speed Precip Events Conditions
12:53 AM 62.1 °F 52.0 °F 70% 30.16 in 10.0 mi Calm Calm - N/A   Clear
1:53 AM 61.0 °F 52.0 °F 72% 30.15 in 10.0 mi Calm Calm - N/A   Overcast
2:53 AM 60.1 °F 52.0 °F 75% 30.14 in 10.0 mi Calm Calm - N/A   Clear
3:53 AM 57.9 °F 52.0 °F 81% 30.14 in 10.0 mi Calm Calm - N/A   Clear
4:53 AM 55.9 °F 52.0 °F 87% 30.15 in 10.0 mi Calm Calm - N/A   Clear
5:53 AM 55.0 °F 52.0 °F 89% 30.16 in 10.0 mi Calm Calm - N/A   Clear
6:53 AM 54.0 °F 52.0 °F 93% 30.16 in 10.0 mi Calm Calm - N/A   Clear
7:53 AM 55.9 °F 52.0 °F 87% 30.17 in 10.0 mi Calm Calm - N/A   Clear
8:53 AM 57.9 °F 53.1 °F 84% 30.19 in 10.0 mi Calm Calm - N/A   Clear
9:53 AM 63.0 °F 54.0 °F 72% 30.19 in 10.0 mi Variable 3.5 mph - N/A   Clear
10:53 AM 66.0 °F 54.0 °F 65% 30.19 in 10.0 mi ENE 4.6 mph - N/A   Clear
11:53 AM 69.1 °F 55.0 °F 61% 30.20 in 10.0 mi East 5.8 mph - N/A   Clear
12:53 PM 72.0 °F 54.0 °F 53% 30.18 in 10.0 mi Variable 4.6 mph - N/A   Clear
1:53 PM 73.9 °F 55.0 °F 52% 30.17 in 10.0 mi Variable 3.5 mph - N/A   Mostly Cloudy
2:53 PM 73.9 °F 53.1 °F 48% 30.15 in 10.0 mi Variable 4.6 mph - N/A   Partly Cloudy
3:53 PM 75.9 °F 55.0 °F 48% 30.13 in 10.0 mi Variable 3.5 mph - N/A   Mostly Cloudy
4:53 PM 78.1 °F 55.0 °F 45% 30.11 in 10.0 mi Variable 4.6 mph - N/A   Partly Cloudy
5:53 PM 77.0 °F 55.0 °F 47% 30.10 in 10.0 mi East 6.9 mph - N/A   Mostly Cloudy
6:53 PM 75.0 °F 55.9 °F 51% 30.09 in 10.0 mi East 3.5 mph - N/A   Overcast
7:53 PM 72.0 °F 55.0 °F 55% 30.10 in 10.0 mi ENE 4.6 mph - N/A   Mostly Cloudy
8:53 PM 71.1 °F 55.0 °F 57% 30.10 in 10.0 mi Calm Calm - N/A   Overcast
9:53 PM 69.1 °F 55.0 °F 61% 30.12 in 10.0 mi Calm Calm - N/A   Overcast
10:53 PM 68.0 °F 55.0 °F 63% 30.12 in 10.0 mi Calm Calm - N/A   Overcast
11:53 PM 64.0 °F 55.0 °F 73% 30.12 in 10.0 mi Calm Calm - N/A   Clear